Карточка аэропорта UMKK

Внимание!
Информация на этой странице в стадии наполнения.
Если вы не увидели какой-то информации, или заметили неточность - пожалуйста сообщите нам!
Спасибо!
Команда RU-STAFF
Название аэропортаХраброво
Название аэропорта (англ.)Khrabrovo
Превышение43 ft. (13.1 m.)
Координаты54°53.4', 20°35.55'
Высота перехода4000ft
Эшелон переходаFL50 (QNH>=1013hPa); FL60 (QNH<1013hPa); FL50 (QNH<977hPa);
Коды ответчика6620-6637
Зона ОрВДКалининград РПИ (UMKK)
Данные METARUMKK 150230Z 27008MPS CAVOK 06/03 Q1008 R24/95D NOSIG RMK QFE755/1006
Проноз погоды (TAF)UMKK 150145Z 1503/1603 27007G15MPS 9999 FEW010 BKN016 BECMG 1509/1511 29004G12MPS BECMG 1515/1517 VRB01MPS BECMG 1519/1521 10003G08MPS
NOTAMshow/hide NOTAM
AWOS   TABLE

Информация о ВПП

ВПП Длина ВПП (м.) Покрытие Курс ВПП Частота ILS
063350Асфальтобетон60110.3
243350Асфальтобетон240109.5

Диспетчерские позиции

Позывной Наименование органа УВД Частота
UMKK_TWRКалининград-Вышка127.2
UMKK_APPКалининград-Подход126.0



Спутниковое изображение